Regional Weather Roundup
Issued by NWS Northern Indiana

Home | Current Version | Previous Version | Text Only | Print | Product List | Glossary On
Versions: 1 2 3 4 5 6 7 8 9 10 11 12 13 14 15 16 17 18 19 20 21 22 23 24 25 26 27 28 29 30 31 32 33 34 35 36 37 38 39 40 41 42 43 44 45 46 47 48 49 50
429
ASUS43 KIWX 020610
RWRIWX

KIWX WEATHER ROUNDUP
NATIONAL WEATHER SERVICE NORTHERN INDIANA
200 AM EDT MON MAY 02 2016

NOTE: "FAIR" INDICATES FEW OR NO CLOUDS BELOW 12,000 FEET WITH NO
SIGNIFICANT WEATHER AND/OR OBSTRUCTIONS TO VISIBILITY.

* THESE STATIONS ARE NOT UNDER NWS QUALITY CONTROL. THEY ALSO MAY NOT
  REPORT WEATHER SUCH AS PRECIPITATION OR FOG.

INZ001>027-020700-
NORTHERN INDIANA

CITY           SKY/WX    TMP DP  RH WIND       PRES   REMARKS
GARY*          CLOUDY    46  46 100 N10G17    30.00R FOG
VALPARAISO     CLOUDY    49  47  93 NE8       29.95R
6HR MIN TEMP:  49; 6HR MAX TEMP:  52; 6HR PCP:  0.08;

MICHIGAN CITY* MOCLDY    46  46 100 NE5       29.96F
LAPORTE*       MOCLDY   N/A N/A N/A NE12      29.95F
                                      6HR PCP:  0.11;

KNOX*          CLOUDY    50  46  87 NE9       29.93F
SOUTH BEND     CLOUDY    46  45  96 NE6       29.96R
6HR MIN TEMP:  46; 6HR MAX TEMP:  52; 6HR PCP:  0.10;

GOSHEN         LGT RAIN  49  46  90 NE12      29.95F
6HR MIN TEMP:  49; 6HR MAX TEMP:  53; 6HR PCP:  0.30;

MONTICELLO*    CLOUDY    52  49  87 NE7       29.92S
6HR MIN TEMP:  52; 6HR MAX TEMP:  57; 6HR PCP:  0.13;

LOGANSPORT*    CLOUDY    54  52  94 NE6       29.93F
ROCHESTER*     CLOUDY    54  54 100 NE9       29.93F
WARSAW*        CLOUDY    50  50 100 NE3       29.96S
ANGOLA*        CLOUDY    48  37  66 N6        29.97R
FORT WAYNE     LGT RAIN  51  49  92 E9        29.94F FOG
6HR MIN TEMP:  51; 6HR MAX TEMP:  56; 6HR PCP:  0.26;

HUNTINGTON*    CLOUDY   N/A N/A N/A E5        29.94S
                                      6HR PCP:  0.27;

PERU/GRISSOM   CLOUDY    54  54 100 NE8       29.91F
6HR MIN TEMP:  54; 6HR MAX TEMP:  60; 6HR PCP:  0.12;

MARION*        CLOUDY    52  52 100 NE8       29.94S
6HR MIN TEMP:  -1; 6HR MAX TEMP:  82; 6HR PCP:  0.30;


$$
INZ028>050-020700-
CENTRAL INDIANA

CITY           SKY/WX    TMP DP  RH WIND       PRES   REMARKS
LAFAYETTE      CLOUDY    52  51  97 W8        29.93S FOG
6HR MIN TEMP:  52; 6HR MAX TEMP:  60; 6HR PCP:  0.03;

KOKOMO*        CLOUDY    54  50  87 E12       29.92F
6HR MIN TEMP:  54; 6HR MAX TEMP:  63; 6HR PCP:  0.23;

MUNCIE*        CLOUDY    56  52  86 NE5       29.93R
6HR MIN TEMP:  56; 6HR MAX TEMP:  69; 6HR PCP:  0.38;

INDIANAPOLIS   CLOUDY    59  56  89 W8        29.91S
6HR MIN TEMP:  55; 6HR MAX TEMP:  73; 6HR PCP:  1.21;


$$
MIZ043>046-050>051-056>058-064>065-071>073-077>080-020700-
SOUTHWEST LOWER MICHIGAN

CITY           SKY/WX    TMP DP  RH WIND       PRES   REMARKS
BATTLE CREEK   CLOUDY    44  42  93 NE7       30.00R
6HR MIN TEMP:  44; 6HR MAX TEMP:  50; 6HR PCP:  0.12;

BENTON HARBOR  CLOUDY    46  43  89 NE7       29.98S
6HR MIN TEMP:  46; 6HR MAX TEMP:  53; 6HR PCP:  0.43;

COLDWATER*     CLOUDY    46  45  97 N8        29.98S
6HR MIN TEMP:  46; 6HR MAX TEMP:  51;

HILLSDALE*     LGT RAIN  46  46 100 NW10      29.97R
6HR MIN TEMP:  46; 6HR MAX TEMP:  50;

HOLLAND        LGT RAIN N/A N/A N/A NE6       30.02R
                                      6HR PCP:  0.34;

GRAND RAPIDS   RAIN      44  41  89 NE7       30.02F
6HR MIN TEMP:  44; 6HR MAX TEMP:  50; 6HR PCP:  0.17;

KALAMAZOO      LGT RAIN  45  41  86 NE10      29.99F
6HR MIN TEMP:  45; 6HR MAX TEMP:  51; 6HR PCP:  0.42;

STURGIS*       FLURRIES  46  44  95 NE8       29.98R
6HR MIN TEMP:  46; 6HR MAX TEMP:  51; 6HR PCP:  0.18;

THREE RIVERS*  MIX PCPN  46  44  94 NE9       29.98S

$$
OHZ001>008-015>018-024>025-020700-
NORTHWEST OHIO

CITY           SKY/WX    TMP DP  RH WIND       PRES   REMARKS
WAUSEON*       LGT RAIN  48 N/A N/A NE8G15    29.96R
DEFIANCE       LGT RAIN  49  47  93 E9        29.94F FOG
6HR MIN TEMP:  49; 6HR MAX TEMP:  56; 6HR PCP:  0.43;

FINDLAY        LGT RAIN  51  46  83 N14       29.90S
6HR MIN TEMP:  51; 6HR MAX TEMP:  54; 6HR PCP:  0.48;

TOLEDO EXPRESS LGT RAIN  48  47  96 E7        29.95F FOG
6HR MIN TEMP:  48; 6HR MAX TEMP:  52; 6HR PCP:  0.37;

TOLEDO METCALF RAIN      49  47  93 NE6       29.96S FOG
6HR MIN TEMP:  49; 6HR MAX TEMP:  53; 6HR PCP:  0.34;

LIMA           CLOUDY    51  50  96 N9        29.93R
6HR MIN TEMP:  51; 6HR MAX TEMP:  55; 6HR PCP:  0.47;


$$
AND FOR LAKE MICHIGAN COASTAL AND OPEN LAKE BUOY OBSERVATIONS

STATION/POSITION TEMP    WIND        PRES    VSBY  WAVE
                 AIR SEA DIR/SP/G                  HT/PER
                 (F)     (DEG/KT/KT) (MB)    (MI)  (FT/S)
CALUMET HARBOR    45     360/ 13/ 18 1014.3F
MICHIGAN CITY     47      20/ 17/ 19   N/A
BURNS HARBOR      48      60/ 17/ 19 1014.6F
SAINT JOSEPH      46      10/  6/  9 1015.6F
SOUTH LAKE BUOY   42 40   50/  6/  8 1017.1R         2/ 4
4 MI NW BRIDGMAN  47 47                N/A           3/ 4

$$
&&




USA.gov is the U.S. government's official web portal to all federal, state and local government web resources and services.